Weather History for Ozona, TX

Change the Weather History Date:

Thursday, October 25, 2012

  Actual Average Record
Temperature  
Mean Temperature 70 °F -  
Max Temperature 86 °F 74 °F 86 °F (2012)
Min Temperature 55 °F 47 °F 44 °F (2013)
Cooling Degree Days 6    
Growing Degree Days 20 (Base 50)    
Moisture  
Dew Point 56 °F    
Average Humidity 66    
Maximum Humidity 94    
Minimum Humidity 29    
Precipitation  
Precipitation 0.00 in - - ()
Sea Level Pressure  
Sea Level Pressure 29.96 in    
Wind  
Wind Speed 11 mph (SE)    
Max Wind Speed 24 mph    
Max Gust Speed 31 mph    
Visibility 10 miles    
Events      
Averages and records for this station are not official NWS values.
T = Trace of Precipitation, MM = Missing Value Source: NWS Daily Summary

Daily Weather History Graph

Daily Weather History Graph

Search for Another Location

Airport:

Trip Planner

Search our weather history database for the weather conditions in past years. The results will help you decide how hot, cold, wet, or windy it might be!

Date:

Astronomy

Oct. 25, 2012 Rise Set
Actual Time 7:54 AM CDT 7:02 PM CDT
Civil Twilight 7:30 AM CDT 7:27 PM CDT
Nautical Twilight 7:01 AM CDT 7:55 PM CDT
Astronomical Twilight 6:33 AM CDT 8:23 PM CDT
Moon 4:37 PM CDT 4:07 AM CDT
Length of Visible Light 11h 56m
Length of Day
11h 07m
Waxing Gibbous, 84% of the Moon is Illuminated
Oct 25
Waxing Gibbous
Oct 29
Full
Nov 6
Last Quarter
Nov 13
New
Nov 20
First Quarter

Hourly Weather History & Observations

Time (CDT) Temp. Heat Index Dew Point Humidity Pressure Visibility Wind Dir Wind Speed Gust Speed Precip Events Conditions
12:15 AM 69.8 °F - 60.8 °F 73% 29.87 in 10.0 mi South 12.7 mph 17.3 mph N/A   Clear
12:35 AM 69.8 °F - 60.8 °F 73% 29.87 in 10.0 mi South 11.5 mph 16.1 mph N/A   Clear
12:55 AM 69.8 °F - 60.8 °F 73% 29.86 in 10.0 mi South 6.9 mph - N/A   Clear
1:15 AM 69.8 °F - 60.8 °F 73% 29.86 in 10.0 mi South 9.2 mph - N/A   Clear
1:35 AM 69.8 °F - 59.0 °F 68% 29.86 in 10.0 mi South 9.2 mph - N/A   Clear
1:55 AM 69.8 °F - 57.2 °F 64% 29.87 in 10.0 mi South 13.8 mph 21.9 mph N/A   Clear
2:35 AM 68.0 °F - 55.4 °F 64% 29.86 in 10.0 mi South 10.4 mph 18.4 mph N/A   Clear
2:55 AM 68.0 °F - 57.2 °F 68% 29.86 in 10.0 mi South 9.2 mph 18.4 mph N/A   Clear
3:15 AM 68.0 °F - 59.0 °F 73% 29.86 in 10.0 mi South 8.1 mph - N/A   Clear
3:35 AM 68.0 °F - 59.0 °F 73% 29.86 in 10.0 mi South 10.4 mph - N/A   Clear
3:55 AM 68.0 °F - 59.0 °F 73% 29.87 in 10.0 mi South 9.2 mph - N/A   Clear
4:15 AM 66.2 °F - 60.8 °F 83% 29.86 in 10.0 mi South 9.2 mph - N/A   Clear
4:35 AM 66.2 °F - 60.8 °F 83% 29.87 in 10.0 mi South 8.1 mph - N/A   Clear
4:55 AM 68.0 °F - 60.8 °F 78% 29.87 in 10.0 mi South 11.5 mph - N/A   Clear
5:15 AM 66.2 °F - 60.8 °F 83% 29.87 in 10.0 mi South 9.2 mph - N/A   Clear
5:55 AM 66.2 °F - 60.8 °F 83% 29.88 in 10.0 mi SSW 8.1 mph - N/A   Clear
6:15 AM 64.4 °F - 60.8 °F 88% 29.88 in 10.0 mi South 9.2 mph - N/A   Clear
6:35 AM 64.4 °F - 62.6 °F 94% 29.88 in 10.0 mi South 8.1 mph - N/A   Clear
6:55 AM 64.4 °F - 60.8 °F 88% 29.88 in 10.0 mi South 8.1 mph - N/A   Clear
7:15 AM 64.4 °F - 60.8 °F 88% 29.89 in 10.0 mi South 8.1 mph - N/A   Clear
7:55 AM 62.6 °F - 60.8 °F 94% 29.92 in 10.0 mi SSW 3.5 mph - N/A   Clear
8:15 AM 62.6 °F - 60.8 °F 94% 29.93 in 10.0 mi South 5.8 mph - N/A   Clear
8:35 AM 64.4 °F - 60.8 °F 88% 29.94 in 10.0 mi SSW 3.5 mph - N/A   Clear
8:55 AM 64.4 °F - 60.8 °F 88% 29.95 in 10.0 mi SSW 6.9 mph - N/A   Clear
9:15 AM 66.2 °F - 60.8 °F 83% 29.96 in 10.0 mi South 6.9 mph - N/A   Clear
9:35 AM 66.2 °F - 60.8 °F 83% 29.96 in 10.0 mi South 10.4 mph - N/A   Mostly Cloudy
9:55 AM 68.0 °F - 60.8 °F 78% 29.96 in 10.0 mi South 10.4 mph - N/A   Overcast
10:15 AM 68.0 °F - 62.6 °F 83% 29.96 in 10.0 mi South 11.5 mph - N/A   Overcast
10:35 AM 68.0 °F - 62.6 °F 83% 29.97 in 10.0 mi SSW 9.2 mph - N/A   Overcast
10:55 AM 68.0 °F - 62.6 °F 83% 29.98 in 10.0 mi SW 10.4 mph - N/A   Mostly Cloudy
11:15 AM 69.8 °F - 62.6 °F 78% 29.98 in 10.0 mi SSW 6.9 mph - N/A   Scattered Clouds
11:35 AM 71.6 °F - 62.6 °F 73% 29.98 in 10.0 mi South 8.1 mph - N/A   Scattered Clouds
11:55 AM - - - N/A% - - North - - N/A   Unknown
12:15 PM 75.2 °F - 62.6 °F 65% 29.98 in 10.0 mi SSW 9.2 mph - N/A   Clear
12:35 PM 77.0 °F - 60.8 °F 57% 29.98 in 10.0 mi Calm Calm - N/A   Clear
1:15 PM 78.8 °F - 59.0 °F 51% 29.96 in 10.0 mi WSW 3.5 mph - N/A   Clear
1:55 PM 80.6 °F 80.8 °F 57.2 °F 45% 29.94 in 10.0 mi NNW 5.8 mph - N/A   Clear
2:15 PM 80.6 °F 80.5 °F 55.4 °F 42% 29.93 in 10.0 mi North 4.6 mph - N/A   Clear
2:35 PM 82.4 °F 81.4 °F 53.6 °F 37% 29.93 in 10.0 mi NNW 8.1 mph - N/A   Clear
2:55 PM 84.2 °F - 50.0 °F 30% 29.92 in 10.0 mi NNW 10.4 mph - N/A   Clear
3:15 PM 86.0 °F - 50.0 °F 29% 29.92 in 10.0 mi North 9.2 mph - N/A   Clear
3:35 PM 82.4 °F 82.5 °F 59.0 °F 45% 29.93 in 10.0 mi NNE 24.2 mph 31.1 mph N/A   Clear
3:55 PM 78.8 °F - 59.0 °F 51% 29.94 in 10.0 mi NNE 21.9 mph 29.9 mph N/A   Clear
4:15 PM 77.0 °F - 59.0 °F 54% 29.94 in 10.0 mi NE 24.2 mph 28.8 mph N/A   Clear
4:35 PM 77.0 °F - 57.2 °F 50% 29.95 in 10.0 mi NE 21.9 mph 28.8 mph N/A   Clear
5:15 PM 73.4 °F - 55.4 °F 53% 29.96 in 10.0 mi NE 21.9 mph 26.5 mph N/A   Clear
5:35 PM 71.6 °F - 55.4 °F 57% 29.97 in 10.0 mi NNE 18.4 mph 26.5 mph N/A   Clear
5:55 PM 71.6 °F - 53.6 °F 53% 29.98 in 10.0 mi NE 18.4 mph 26.5 mph N/A   Clear
6:15 PM 69.8 °F - 51.8 °F 53% 29.98 in 10.0 mi NE 16.1 mph 25.3 mph N/A   Clear
6:35 PM 68.0 °F - 51.8 °F 56% 30.00 in 10.0 mi NE 18.4 mph 23.0 mph N/A   Clear
6:55 PM 68.0 °F - 51.8 °F 56% 30.01 in 10.0 mi NNE 16.1 mph 20.7 mph N/A   Clear
7:15 PM 64.4 °F - 50.0 °F 59% 30.02 in 10.0 mi NNE 12.7 mph - N/A   Clear
7:35 PM 64.4 °F - 50.0 °F 59% 30.02 in 10.0 mi NNE 15.0 mph 19.6 mph N/A   Clear
7:55 PM 62.6 °F - 50.0 °F 63% 30.03 in 10.0 mi NE 11.5 mph - N/A   Clear
8:15 PM 62.6 °F - 50.0 °F 63% 30.05 in 10.0 mi NE 11.5 mph - N/A   Clear
8:35 PM 62.6 °F - 48.2 °F 59% 30.05 in 10.0 mi NE 9.2 mph 17.3 mph N/A   Clear
8:55 PM 60.8 °F - 46.4 °F 59% 30.07 in 10.0 mi NE 10.4 mph - N/A   Clear
9:15 PM 60.8 °F - 46.4 °F 59% 30.08 in 10.0 mi NE 13.8 mph 18.4 mph N/A   Clear
9:55 PM 59.0 °F - 42.8 °F 55% 30.09 in 10.0 mi NE 16.1 mph 21.9 mph N/A   Clear
10:15 PM 59.0 °F - 41.0 °F 51% 30.10 in 10.0 mi NE 18.4 mph 25.3 mph N/A   Clear
10:35 PM 57.2 °F - 41.0 °F 55% 30.12 in 10.0 mi NE 11.5 mph - N/A   Clear
10:55 PM 55.4 °F - 39.2 °F 54% 30.12 in 10.0 mi NE 16.1 mph 21.9 mph N/A   Clear
11:15 PM 55.4 °F - 39.2 °F 54% 30.12 in 10.0 mi NE 9.2 mph - N/A   Clear
11:35 PM 55.4 °F - 39.2 °F 54% 30.13 in 10.0 mi NE 12.7 mph - N/A   Scattered Clouds
11:55 PM 55.4 °F - 37.4 °F 51% 30.13 in 10.0 mi NE 13.8 mph 18.4 mph N/A   Scattered Clouds